Location: ?meciksusuzu
(36.9292°N, 30.2522°E)
Time: 21:14:03
(UTC+00:00)

Daily predictions for brighter satellites

Satellite Brightness Start Highest point End
(mag) Time Altitude Azimuth Time Altitude Azimuth Time Altitude Azimuth
Cosmos 540 Rocket 3.6 15:29:33 10° SSW 15:34:40 79° WNW 15:39:49 10° NNE
Cosmos 468 Rocket 4.0 15:33:02 10° SSW 15:38:14 85° ESE 15:43:26 10° NNE
Cosmos 1733 Rocket 3.4 15:36:29 10° N 15:40:43 45° E 15:44:56 10° SSE
Cosmos 2228 Rocket 3.1 15:40:12 10° S 15:44:41 73° E 15:49:13 10° NNE
Cosmos 2279 Rocket 4.0 15:39:16 10° N 15:45:27 71° E 15:51:36 10° SSE
Cosmos 841 Rocket 3.8 15:42:46 10° S 15:47:46 46° ESE 15:52:47 10° NNE
Cosmos 1898 Rocket 4.1 15:47:29 10° N 15:52:17 34° ENE 15:57:05 10° SE
PSLV R/B 3.6 15:49:43 10° S 15:53:45 76° WSW 15:57:50 10° NNW
SL-16 R/B 3.1 15:49:21 10° SSE 15:54:04 28° ESE 15:58:49 10° NE
Cosmos 1980 4.0 15:48:53 10° SSW 15:54:29 70° WNW 16:00:08 10° NNE
Aureole 1 Rocket 4.4 15:48:42 10° N 15:56:02 51° ENE 16:02:24 10° SE
Okean 1-7 3.1 15:55:13 10° S 15:59:22 52° E 16:03:32 10° NNE
Cosmos 1703 4.0 15:56:26 10° SSE 15:59:24 26° E 16:02:21 10° NNE
SMAP 4.4 15:56:21 10° S 16:00:46 44° W 16:05:14 10° NNW
USA 267 4.4 16:01:47 10° SSE 16:08:00 46° SW 16:14:16 10° NW
ACS3 Solar Sail 2.1 16:02:05 10° SE 16:08:09 48° ENE 16:14:16 10° N
ATLAS 2AS CENTAUR R/B 3.7 16:03:16 10° N 16:08:26 23° NE 16:11:35 16° ENE
Lacrosse 5 3.9 16:05:40 10° WNW 16:10:08 31° WSW 16:14:36 10° S
BREEZE-M DEB 3.1 16:08:13 10° SSW 16:10:26 38° SE 16:12:58 19° ENE
Cosmos 1953 2.4 16:07:57 10° NNW 16:11:40 71° W 16:15:20 10° S
Cosmos 1437 Rocket 4.1 16:11:22 10° SE 16:13:35 18° E 16:13:35 18° E
SKYMED 2 3.8 16:10:58 10° N 16:15:19 75° WNW 16:19:38 10° SSW
Cosmos 2369 Rocket 3.9 16:13:32 10° NNE 16:15:04 13° NE 16:15:04 13° NE
DNEPR-1 R/B 3.5 16:18:09 10° NNW 16:22:41 60° ENE 16:26:48 10° SE
Cosmos 372 Rocket 3.9 16:17:40 10° N 16:22:43 62° ENE 16:27:44 10° SSE
Cosmos 1174 4.0 16:19:51 10° NNW 16:23:49 85° WSW 16:28:44 10° SSE
Meteor 2-12 Rocket 4.5 16:17:58 10° SSE 16:23:50 55° E 16:29:46 10° NNE
EO 1 Delta rocket 3.9 16:21:32 10° N 16:26:10 81° WNW 16:30:58 10° SSW
Aureole 3 3.0 16:28:59 10° SSE 16:31:27 41° ESE 16:31:27 41° ESE
Cosmos 1908 Rocket 3.6 16:29:28 10° N 16:33:42 52° E 16:37:54 10° SSE
BREEZE-M TANK 3.2 16:30:24 10° WNW 16:34:09 68° NNE 16:40:37 17° ESE
Cosmos 2026 Rocket 4.1 16:28:30 10° SSE 16:34:41 57° E 16:40:54 10° NNE
Meteor 1-31 Rocket 2.4 16:31:25 10° SSE 16:34:58 86° ENE 16:38:33 10° N
Cosmos 1932 4.4 16:30:14 10° SSW 16:36:24 86° ESE 16:41:22 17° NNE
Delta 2 Rocket 2.6 16:33:28 10° W 16:36:40 70° S 16:37:13 54° ESE
Cosmos 1428 Rocket 4.4 16:35:22 10° S 16:41:36 89° WNW 16:47:47 10° N
Cosmos 1937 Rocket 3.3 16:37:22 10° NNW 16:42:31 71° ENE 16:47:39 10° SSE
Cosmos 858 Rocket 4.5 16:41:55 10° N 16:47:03 58° ENE 16:52:10 10° SSE
Cosmos 2237 Rocket 4.1 16:44:10 10° WSW 16:48:56 27° WNW 16:53:43 10° N
Cosmos 1943 Rocket 3.0 16:44:26 10° NNW 16:49:53 51° WSW 16:55:17 10° S
YAOGAN 3 4.3 16:46:18 10° SSE 16:50:32 82° ENE 16:54:47 10° N
Cosmos 1825 2.4 16:48:54 10° S 16:50:59 41° S 16:50:59 41° S
SL-08 R/B 3.8 16:57:06 41° ESE 16:57:06 41° ESE 17:00:58 10° S
RESURS DK-1 3.6 16:52:50 10° NW 16:56:37 40° WSW 17:00:21 10° S
NOAA 6 4.4 16:51:37 10° S 16:56:39 64° WSW 17:01:45 10° NNW
Hubble Space Telescope 2.9 16:59:30 10° SSW 17:01:32 15° S 17:01:32 15° S
BlueWalker 3 4.5 16:59:46 10° NNW 16:59:51 10° N 16:59:51 10° N
Cosmos 2278 Rocket 4.2 16:59:00 10° NW 17:03:47 29° WSW 17:08:31 10° SSW
OAO 1 Rocket 4.5 16:58:51 10° WSW 17:04:09 70° S 17:05:11 55° ESE
CZ-4C R/B 3.8 17:01:03 10° W 17:04:31 22° NW 17:08:01 12° N
YAOGAN 1 3.5 17:04:48 10° S 17:08:54 46° W 17:13:01 10° NNW
Meteor 1-24 Rocket 3.7 17:06:17 10° S 17:12:07 81° E 17:15:51 25° NNE
ATLAS 5 CENTAUR R/B 3.2 17:11:48 10° W 17:13:58 17° NW 17:14:21 17° NW
SPOT 1/Viking Rocket 3.7 17:11:19 10° S 17:16:29 73° WSW 17:21:37 10° NNW
Cosmos 1892 4.4 17:14:29 10° SSW 17:15:59 24° SW 17:15:59 24° SW
Cosmos 1943 4.0 17:16:21 10° S 17:19:58 36° SSE 17:19:58 36° SSE
Meteor 2-5 Rocket 3.7 17:16:46 10° S 17:22:28 86° W 17:25:03 35° N
Resurs 1-3 4.2 17:20:17 10° S 17:24:29 53° W 17:28:44 10° NNW
Cosmos 1656 Rocket 4.0 17:29:10 10° NNW 17:33:23 55° NNW 17:33:23 55° NNW
SL-16 R/B 3.5 17:32:47 10° SW 17:37:58 36° WNW 17:40:55 22° N
ACS3 Solar Sail 3.9 17:46:48 10° SW 17:51:52 25° W 17:56:59 10° NW
ATLAS 2AS CENTAUR R/B 2.8 17:53:17 10° NW 17:59:05 65° WNW 17:59:05 65° WNW
Cosmos 2369 Rocket 4.0 17:55:13 10° NNW 17:56:55 21° NNW 17:56:55 21° NNW
